CAPE
0 0 0 0 0 0 0 0 0 0 0 0 0 0 0 0 0 0 0 0 0 0 0 29 120 408 399 731 378 177 71 135 457 84 127 51 51 9 0 228 601 782 289 39 0
0 0 0 0 0 0 0 0 0 0 0 0 0 0 0 0 0 0 0 168 42 85 0 155 367 637 744 65 82 96 232 187 274 199 212 69 7 134 96 353 475 333 65 1 0
0 0 0 0 0 0 0 0 0 0 0 0 0 0 0 0 0 0 463 253 50 104 0 107 337 829 603 109 27 9 82 90 176 219 136 100 224 193 229 346 369 252 19 0 0
0 0 0 0 0 0 0 0 0 0 0 0 0 0 7 0 40 2 193 188 313 0 0 215 495 664 587 101 21 22 81 142 252 197 89 51 174 326 203 254 264 153 0 0 0
0 0 0 0 0 0 0 0 0 0 0 0 0 0 0 0 0 0 223 26 0 0 0 316 315 557 368 216 540 82 251 331 515 356 14 1 0 52 69 278 268 119 0 0 0
0 0 0 0 0 0 0 0 0 0 0 0 0 0 0 0 0 0 33 49 0 0 114 366 378 619 66 76 437 170 160 242 300 184 52 1 0 34 60 185 143 42 0 0 0
0 0 0 0 0 0 0 0 0 0 0 0 0 0 0 0 0 0 11 0 0 0 311 306 446 324 482 427 327 29 296 237 92 203 322 93 6 8 39 49 50 8 0 0 0
0 0 0 0 0 0 0 0 0 0 0 0 0 0 0 0 0 0 0 2 0 0 239 361 557 390 288 381 332 394 305 63 79 221 189 184 42 119 87 17 0 0 0 12 28
0 0 0 0 0 0 0 0 0 0 0 0 0 0 0 0 0 0 0 20 0 0 110 338 458 317 257 294 250 96 127 92 183 40 117 205 197 232 314 456 367 143 0 0 25
0 0 0 0 0 0 0 0 0 0 0 0 0 0 0 0 0 0 0 13 0 0 100 468 368 298 204 180 136 121 83 42 117 58 89 138 176 282 481 665 603 462 134 0 0
0 0 0 0 0 0 0 0 0 0 0 0 0 0 0 0 0 0 0 9 0 129 240 345 309 179 85 98 65 1 40 23 46 143 80 7 235 231 394 773 816 799 515 182 8
0 0 0 0 0 0 0 0 0 0 0 0 0 0 0 0 0 0 3 0 94 251 386 327 209 258 151 149 56 44 8 15 76 136 129 71 99 149 168 792 886 897 866 657 213
0 0 0 0 0 0 0 0 0 0 0 0 0 0 0 0 0 0 28 11 329 457 459 133 355 288 219 240 249 2 17 51 79 42 169 46 191 232 41 97 879 917 923 850 590
0 0 0 0 0 0 0 0 0 0 0 0 0 0 0 0 0 0 13 64 180 343 342 126 229 228 200 191 244 26 22 108 113 28 106 81 133 13 0 0 0 788 955 904 860
0 0 0 0 0 0 0 0 0 0 0 0 0 0 0 0 0 0 0 68 171 127 105 158 127 200 194 132 269 188 39 71 54 99 74 58 40 66 2 0 0 0 347 809 877
0 0 0 0 0 0 0 0 0 0 0 0 0 0 0 0 0 0 0 0 112 216 121 45 16 94 323 328 276 165 37 40 25 42 108 63 25 67 22 9 10 150 270 270 355
0 0 0 0 0 0 0 0 0 0 0 0 0 0 0 0 0 0 0 0 0 5 20 6 0 60 238 266 207 193 163 43 79 66 90 43 52 29 16 0 101 141 187 174 292
0 0 0 0 0 0 0 0 0 0 0 0 0 0 0 0 0 0 0 0 0 0 27 0 7 123 329 215 129 172 230 119 182 133 104 56 0 5 0 0 113 95 110 70 119
0 0 0 0 0 0 0 0 0 0 0 0 0 0 0 0 0 0 0 0 0 0 22 28 1 186 294 248 140 96 280 351 231 132 67 121 16 0 0 0 165 115 270 359 527
0 0 0 0 0 0 0 0 0 0 0 0 0 0 0 0 0 0 0 0 0 0 0 46 31 198 139 111 150 55 77 122 94 44 114 11 4 3 0 0 66 262 424 559 749
0 0 0 0 0 0 0 0 0 0 0 0 0 0 0 0 0 0 0 0 0 0 0 2 11 89 151 120 100 60 75 49 70 27 87 24 0 6 0 3 57 317 490 579 712
0 0 0 0 0 0 0 0 0 0 0 0 0 0 0 0 0 0 0 0 0 0 0 12 14 63 108 44 21 5 93 67 3 45 60 47 63 95 24 25 49 273 371 380 467
0 0 0 0 0 0 0 0 0 0 0 0 0 0 0 0 0 0 0 0 2 1 2 31 44 204 24 28 11 1 4 17 5 8 30 44 19 93 91 117 394 357 291 491 1265
0 0 0 0 0 0 0 0 0 0 0 0 0 0 0 0 0 0 0 0 0 3 20 10 91 67 13 123 25 0 0 0 0 2 5 1 0 327 276 374 856 1161 1138 1127 1256
0 0 0 0 0 0 0 0 0 0 0 0 0 0 0 0 0 0 0 0 0 0 0 17 3 7 0 4 18 15 0 0 0 0 0 0 15 947 1306 1284 1492 1471 1545 1289 1181
0 0 0 0 0 0 0 0 0 0 0 0 0 0 0 0 0 0 0 0 0 0 0 0 0 0 0 0 8 35 0 0 0 0 0 0 42 942 1345 1372 1642 1759 1403 1257 1333
0 0 0 0 2 0 0 0 0 0 0 0 0 0 0 0 0 0 0 0 0 0 0 0 0 0 0 0 1 1 0 0 0 0 0 0 2 21 451 1570 2142 1837 1542 1419 1417
CIN
-0 -0 -0 -0 -0 -0 -0 -0 -0 -0 -0 -0 -0 -0 -0 -0 -0 -0 -0 -0 -0 -0 -0 -27 -38 -54 -65 -51 -153 -360 -62 -35 -111 -14 -44 -41 -76 -85 -0 -122 -99 -132 -185 -362 -0
-0 -0 -0 -0 -0 -0 -0 -0 -0 -0 -0 -0 -0 -0 -0 -0 -0 -0 -0 -513 -314 -402 -0 -49 -55 -44 -27 -269 -191 -253 -342 -193 -77 -34 -15 -44 -26 -55 -99 -153 -185 -223 -352 -71 -0
-0 -0 -0 -0 -0 -0 -0 -0 -0 -0 -0 -0 -0 -0 -0 -0 -0 -0 -621 -616 -589 -177 -0 -59 -37 -24 -226 -70 -333 -113 -45 -12 -29 -55 -17 -28 -53 -99 -82 -199 -207 -242 -429 -0 -0
-0 -0 -0 -0 -0 -0 -0 -0 -0 -0 -0 -0 -0 -0 -71 -0 -91 -16 -634 -702 -669 -0 -0 -52 -25 -17 -12 -192 -30 -10 -30 -39 -77 -20 -36 -36 -44 -22 -60 -200 -227 -319 -0 -0 -0
-0 -0 -0 -0 -0 -0 -0 -0 -0 -0 -0 -0 -0 -0 -0 -0 -0 -0 -655 -510 -0 -0 -0 -46 -40 -55 -98 -136 -256 -221 -294 -242 -130 -12 -16 -28 -0 -100 -143 -193 -237 -357 -0 -0 -0
-0 -0 -0 -0 -0 -0 -0 -0 -0 -0 -0 -0 -0 -0 -0 -0 -0 -0 -182 -143 -0 -0 -40 -37 -31 -23 -114 -75 -187 -67 -417 -223 -142 -7 -7 -27 -0 -113 -184 -237 -293 -434 -0 -0 -0
-0 -0 -0 -0 -0 -0 -0 -0 -0 -0 -0 -0 -0 -0 -0 -0 -0 -0 -177 -0 -0 -0 -20 -53 -11 -133 -56 -37 -47 -11 -215 -69 -37 -42 -23 -78 -108 -112 -206 -313 -357 -438 -0 -0 -0
-0 -0 -0 -0 -0 -0 -0 -0 -0 -0 -0 -0 -0 -0 -0 -0 -0 -0 -0 -29 -0 -0 -25 -54 -41 -42 -45 -39 -110 -38 -176 -12 -41 -25 -37 -39 -49 -36 -148 -298 -13 -0 -0 -507 -464
-0 -0 -0 -0 -0 -0 -0 -0 -0 -0 -0 -0 -0 -0 -0 -0 -0 -0 -0 -139 -0 -0 -44 -52 -31 -65 -61 -55 -73 -55 -110 -23 -53 -81 -51 -57 -21 -69 -78 -71 -26 -81 -0 -0 -447
-0 -0 -0 -0 -0 -0 -0 -0 -0 -0 -0 -0 -0 -0 -0 -0 -0 -0 -0 -176 -0 -0 -56 -31 -35 -58 -22 -16 -38 -46 -197 -120 -48 -39 -82 -57 -14 -22 -81 -84 -32 -11 -150 -0 -0
-0 -0 -0 -0 -0 -0 -0 -0 -0 -0 -0 -0 -0 -0 -0 -0 -0 -0 -0 -119 -0 -54 -47 -29 -24 -13 -37 -17 -45 -33 -68 -6 -7 -29 -115 -6 -6 -11 -37 -47 -64 -55 -52 -151 -312
-0 -0 -0 -0 -0 -0 -0 -0 -0 -0 -0 -0 -0 -0 -0 -0 -0 -0 -143 -0 -71 -58 -32 -11 -16 -25 -36 -109 -37 -309 -193 -37 -192 -111 -92 -21 -19 -7 -28 -46 -55 -59 -45 -45 -156
-0 -0 -0 -0 -0 -0 -0 -0 -0 -0 -0 -0 -0 -0 -0 -0 -0 -0 -119 -141 -52 -36 -14 -26 -15 -11 -48 -76 -44 -112 -112 -30 -122 -65 -71 -81 -5 -46 -19 -27 -51 -50 -48 -50 -46
-0 -0 -0 -0 -0 -0 -0 -0 -0 -0 -0 -0 -0 -0 -0 -0 -0 -0 -123 -84 -59 -35 -24 -27 -52 -8 -29 -71 -60 -52 -115 -184 -240 -13 -91 -33 -27 -34 -0 -0 -0 -41 -50 -48 -76
-0 -0 -0 -0 -0 -0 -0 -0 -0 -0 -0 -0 -0 -0 -0 -0 -0 -0 -0 -52 -59 -62 -9 -15 -10 -3 -47 -56 -28 -4 -149 -230 -191 -119 -40 -19 -13 -15 -6 -0 -0 -0 -34 -59 -26
-0 -0 -0 -0 -0 -0 -0 -0 -0 -0 -0 -0 -0 -0 -0 -0 -0 -0 -0 -0 -58 -32 -11 -9 -8 -52 -50 -37 -19 -16 -129 -60 -40 -54 -44 -6 -7 -12 -12 -33 -119 -107 -80 -59 -65
-0 -0 -0 -0 -0 -0 -0 -0 -0 -0 -0 -0 -0 -0 -0 -0 -0 -0 -0 -0 -0 -9 -18 -32 -0 -78 -19 -38 -30 -130 -109 -60 -29 -33 -47 -136 -23 -24 -13 -12 -94 -122 -124 -87 -103
-0 -0 -0 -0 -0 -0 -0 -0 -0 -0 -0 -0 -0 -0 -0 -0 -0 -0 -0 -0 -0 -0 -45 -0 -153 -112 -94 -30 -36 -16 -29 -61 -24 -37 -29 -48 -0 -25 -0 -0 -69 -85 -106 -128 -116
-0 -0 -0 -0 -0 -0 -0 -0 -0 -0 -0 -0 -0 -0 -0 -0 -0 -0 -0 -0 -0 -0 -58 -52 -52 -29 -19 -16 -27 -31 -43 -41 -8 -21 -44 -40 -11 -0 -0 -0 -75 -112 -141 -178 -181
-0 -0 -0 -0 -0 -0 -0 -0 -0 -0 -0 -0 -0 -0 -0 -0 -0 -0 -0 -0 -0 -0 -0 -75 -42 -50 -20 -40 -50 -45 -73 -31 -26 -25 -9 -30 -14 -3 -0 -0 -33 -99 -151 -163 -160
-0 -0 -0 -0 -0 -0 -0 -0 -0 -0 -0 -0 -0 -0 -0 -0 -0 -0 -0 -0 -0 -0 -0 -3 -40 -118 -111 -7 -23 -59 -89 -70 -28 -15 -12 -154 -0 -55 -0 -86 -47 -45 -93 -134 -144
-0 -0 -0 -0 -0 -0 -0 -0 -0 -0 -0 -0 -0 -0 -0 -0 -0 -0 -0 -0 -0 -0 -0 -55 -22 -71 -43 -15 -27 -266 -64 -41 -23 -26 -17 -5 -10 -87 -64 -170 -69 -43 -85 -129 -120
-0 -0 -0 -0 -0 -0 -0 -0 -0 -0 -0 -0 -0 -0 -0 -0 -0 -0 -0 -0 -12 -13 -9 -11 -13 -106 -11 -114 -25 -43 -28 -59 -55 -31 -6 -7 -13 -89 -54 -17 -33 -74 -98 -109 -123
-0 -0 -0 -0 -0 -0 -0 -0 -0 -0 -0 -0 -0 -0 -0 -0 -0 -0 -0 -0 -4 -2 -40 -10 -0 -3 -56 -235 -133 -0 -0 -0 -0 -18 -52 -4 -0 -25 -12 -57 -156 -137 -136 -156 -196
-0 -0 -0 -0 -0 -0 -0 -0 -0 -0 -0 -0 -0 -0 -0 -0 -0 -0 -0 -0 -0 -0 -0 -17 -3 -1 -0 -52 -61 -2 -0 -0 -0 -0 -0 -0 -15 -66 -115 -118 -152 -183 -180 -174 -147
-0 -0 -0 -0 -0 -0 -0 -0 -0 -0 -0 -0 -0 -0 -0 -0 -0 -0 -0 -0 -0 -0 -0 -0 -0 -0 -0 -0 -3 -32 -1 -0 -0 -0 -0 -0 -73 -64 -77 -88 -96 -141 -167 -158 -138
-0 -0 -0 -0 -3 -0 -0 -0 -0 -0 -0 -0 -0 -0 -0 -0 -0 -0 -0 -0 -0 -0 -0 -0 -0 -0 -0 -0 -12 -2 -0 -0 -0 -15 -0 -0 -112 -55 -73 -63 -58 -60 -46 -99 -64
Wind_Speed
nan nan nan nan nan nan nan nan nan nan nan nan nan nan nan nan nan nan nan nan nan nan nan nan 13 7 8 14 14 17 nan 19 19 nan 6 nan nan nan nan 11 9 14 13 nan nan
nan nan nan nan nan nan nan nan nan nan nan nan nan nan nan nan nan nan nan 13 nan nan nan 12 11 16 9 nan nan nan 29 31 26 14 16 nan nan 11 nan 4 8 10 nan nan nan
nan nan nan nan nan nan nan nan nan nan nan nan nan nan nan nan nan nan 27 6 nan 12 nan 17 9 17 21 23 nan nan nan nan 48 24 13 12 12 6 10 10 15 20 nan nan nan
nan nan nan nan nan nan nan nan nan nan nan nan nan nan nan nan nan nan 25 18 15 nan nan 14 9 16 2 30 nan nan nan 37 29 1 nan nan 6 4 8 12 18 18 nan nan nan
nan nan nan nan nan nan nan nan nan nan nan nan nan nan nan nan nan nan 22 nan nan nan nan 15 17 17 22 31 53 nan 39 34 34 19 nan nan nan nan nan 14 15 16 nan nan nan
nan nan nan nan nan nan nan nan nan nan nan nan nan nan nan nan nan nan nan nan nan nan 14 17 18 7 nan nan 25 46 49 44 33 9 nan nan nan nan nan 11 14 nan nan nan nan
nan nan nan nan nan nan nan nan nan nan nan nan nan nan nan nan nan nan nan nan nan nan 12 15 3 17 24 26 23 nan 52 45 nan 30 15 nan nan nan nan nan nan nan nan nan nan
nan nan nan nan nan nan nan nan nan nan nan nan nan nan nan nan nan nan nan nan nan nan 10 11 16 14 21 13 9 15 22 nan nan 30 24 19 nan 15 nan nan nan nan nan nan nan
nan nan nan nan nan nan nan nan nan nan nan nan nan nan nan nan nan nan nan nan nan nan 12 10 12 10 21 22 29 nan 35 nan 19 nan 19 14 5 16 13 14 16 20 nan nan nan
nan nan nan nan nan nan nan nan nan nan nan nan nan nan nan nan nan nan nan nan nan nan 14 9 15 16 19 35 8 15 nan nan 19 nan nan 11 18 18 8 13 20 24 23 nan nan
nan nan nan nan nan nan nan nan nan nan nan nan nan nan nan nan nan nan nan nan nan 14 11 11 19 26 nan nan nan nan nan nan nan 22 nan nan 14 18 17 6 14 18 22 20 nan
nan nan nan nan nan nan nan nan nan nan nan nan nan nan nan nan nan nan nan nan nan 12 12 25 23 13 18 15 nan nan nan nan nan 27 16 nan nan 19 14 33 32 24 15 19 19
nan nan nan nan nan nan nan nan nan nan nan nan nan nan nan nan nan nan nan nan 14 13 16 14 19 13 16 5 11 nan nan nan nan nan 12 nan 18 15 nan nan 29 29 19 17 23
nan nan nan nan nan nan nan nan nan nan nan nan nan nan nan nan nan nan nan nan 19 17 15 23 9 18 14 5 7 nan nan 36 33 nan 17 nan 4 nan nan nan nan 31 32 27 21
nan nan nan nan nan nan nan nan nan nan nan nan nan nan nan nan nan nan nan nan 17 19 25 24 33 31 37 16 23 22 nan nan nan nan nan nan nan nan nan nan nan nan 26 32 35
nan nan nan nan nan nan nan nan nan nan nan nan nan nan nan nan nan nan nan nan 19 22 25 nan nan nan 15 33 29 40 nan nan nan nan 18 nan nan nan nan nan nan 25 14 25 29
nan nan nan nan nan nan nan nan nan nan nan nan nan nan nan nan nan nan nan nan nan nan nan nan nan nan 29 16 22 37 4 nan nan nan nan nan nan nan nan nan 35 25 33 34 26
nan nan nan nan nan nan nan nan nan nan nan nan nan nan nan nan nan nan nan nan nan nan nan nan nan 15 17 21 21 23 10 18 21 23 21 nan nan nan nan nan 39 nan 33 nan 29
nan nan nan nan nan nan nan nan nan nan nan nan nan nan nan nan nan nan nan nan nan nan nan nan nan 10 18 26 34 nan 23 19 34 31 nan 29 nan nan nan nan 36 39 36 27 31
nan nan nan nan nan nan nan nan nan nan nan nan nan nan nan nan nan nan nan nan nan nan nan nan nan 29 35 35 35 nan nan 33 nan nan 28 nan nan nan nan nan nan 30 28 29 31
nan nan nan nan nan nan nan nan nan nan nan nan nan nan nan nan nan nan nan nan nan nan nan nan nan nan 32 34 27 nan nan nan nan nan nan nan nan nan nan nan nan 28 36 34 34
nan nan nan nan nan nan nan nan nan nan nan nan nan nan nan nan nan nan nan nan nan nan nan nan nan nan 26 nan nan nan nan nan nan nan nan nan nan nan nan nan nan 30 38 34 37
nan nan nan nan nan nan nan nan nan nan nan nan nan nan nan nan nan nan nan nan nan nan nan nan nan 30 nan nan nan nan nan nan nan nan nan nan nan nan nan 12 33 41 39 47 55
nan nan nan nan nan nan nan nan nan nan nan nan nan nan nan nan nan nan nan nan nan nan nan nan nan nan nan 32 nan nan nan nan nan nan nan nan nan 12 32 28 41 45 52 54 58
nan nan nan nan nan nan nan nan nan nan nan nan nan nan nan nan nan nan nan nan nan nan nan nan nan nan nan nan nan nan nan nan nan nan nan nan nan 28 29 33 38 40 50 61 63
nan nan nan nan nan nan nan nan nan nan nan nan nan nan nan nan nan nan nan nan nan nan nan nan nan nan nan nan nan nan nan nan nan nan nan nan nan 35 29 34 34 47 66 70 69
nan nan nan nan nan nan nan nan nan nan nan nan nan nan nan nan nan nan nan nan nan nan nan nan nan nan nan nan nan nan nan nan nan nan nan nan nan nan 46 46 59 68 67 64 60
Wind_Direction
nan nan nan nan nan nan nan nan nan nan nan nan nan nan nan nan nan nan nan nan nan nan nan nan 114 81 194 210 178 140 nan 93 54 nan 6 nan nan nan nan 12 65 58 356 nan nan
nan nan nan nan nan nan nan nan nan nan nan nan nan nan nan nan nan nan nan 162 nan nan nan 145 163 223 167 nan nan nan 127 113 98 86 346 nan nan 351 nan 292 326 314 nan nan nan
nan nan nan nan nan nan nan nan nan nan nan nan nan nan nan nan nan nan 179 208 nan 206 nan 134 156 229 189 150 nan nan nan nan 91 61 329 6 359 27 14 341 355 348 nan nan nan
nan nan nan nan nan nan nan nan nan nan nan nan nan nan nan nan nan nan 199 214 205 nan nan 140 151 249 102 146 nan nan nan 84 117 177 nan nan 293 190 358 8 349 352 nan nan nan
nan nan nan nan nan nan nan nan nan nan nan nan nan nan nan nan nan nan 203 nan nan nan nan 134 152 252 247 131 129 nan 95 98 78 82 nan nan nan nan nan 337 343 351 nan nan nan
nan nan nan nan nan nan nan nan nan nan nan nan nan nan nan nan nan nan nan nan nan nan 158 132 208 262 nan nan 83 132 116 100 100 80 nan nan nan nan nan 38 33 nan nan nan nan
nan nan nan nan nan nan nan nan nan nan nan nan nan nan nan nan nan nan nan nan nan nan 152 156 192 259 353 109 50 nan 108 110 nan 164 181 nan nan nan nan nan nan nan nan nan nan
nan nan nan nan nan nan nan nan nan nan nan nan nan nan nan nan nan nan nan nan nan nan 152 187 166 172 70 117 108 137 131 nan nan 166 172 175 nan 9 nan nan nan nan nan nan nan
nan nan nan nan nan nan nan nan nan nan nan nan nan nan nan nan nan nan nan nan nan nan 173 172 219 154 145 153 160 nan 167 nan 155 nan 175 188 136 22 345 348 30 30 nan nan nan
nan nan nan nan nan nan nan nan nan nan nan nan nan nan nan nan nan nan nan nan nan nan 181 185 193 157 189 190 173 112 nan nan 105 nan nan 109 68 58 84 3 25 24 26 nan nan
nan nan nan nan nan nan nan nan nan nan nan nan nan nan nan nan nan nan nan nan nan 187 194 168 179 202 nan nan nan nan nan nan nan 120 nan nan 84 64 40 14 27 19 7 27 nan
nan nan nan nan nan nan nan nan nan nan nan nan nan nan nan nan nan nan nan nan nan 178 176 189 194 203 247 261 nan nan nan nan nan 102 81 nan nan 77 44 356 351 6 6 13 19
nan nan nan nan nan nan nan nan nan nan nan nan nan nan nan nan nan nan nan nan 186 184 179 202 193 219 250 244 177 nan nan nan nan nan 77 nan 166 118 nan nan 344 346 8 9 7
nan nan nan nan nan nan nan nan nan nan nan nan nan nan nan nan nan nan nan nan 193 177 179 179 260 259 182 235 199 nan nan 100 110 nan 24 nan 50 nan nan nan nan 331 349 357 3
nan nan nan nan nan nan nan nan nan nan nan nan nan nan nan nan nan nan nan nan 187 181 209 201 209 213 168 153 221 277 nan nan nan nan nan nan nan nan nan nan nan nan 328 354 345
nan nan nan nan nan nan nan nan nan nan nan nan nan nan nan nan nan nan nan nan 204 186 191 nan nan nan 159 146 244 241 nan nan nan nan 178 nan nan nan nan nan nan 291 313 322 308
nan nan nan nan nan nan nan nan nan nan nan nan nan nan nan nan nan nan nan nan nan nan nan nan nan nan 151 177 256 255 327 nan nan nan nan nan nan nan nan nan 278 300 315 313 312
nan nan nan nan nan nan nan nan nan nan nan nan nan nan nan nan nan nan nan nan nan nan nan nan nan 217 174 233 235 227 167 220 214 218 205 nan nan nan nan nan 258 nan 299 nan 292
nan nan nan nan nan nan nan nan nan nan nan nan nan nan nan nan nan nan nan nan nan nan nan nan nan 294 258 228 242 nan 201 190 233 225 nan 212 nan nan nan nan 232 264 269 284 282
nan nan nan nan nan nan nan nan nan nan nan nan nan nan nan nan nan nan nan nan nan nan nan nan nan 208 236 241 228 nan nan 215 nan nan 266 nan nan nan nan nan nan 255 268 279 286
nan nan nan nan nan nan nan nan nan nan nan nan nan nan nan nan nan nan nan nan nan nan nan nan nan nan 237 248 246 nan nan nan nan nan nan nan nan nan nan nan nan 283 317 284 294
nan nan nan nan nan nan nan nan nan nan nan nan nan nan nan nan nan nan nan nan nan nan nan nan nan nan 254 nan nan nan nan nan nan nan nan nan nan nan nan nan nan 299 305 292 292
nan nan nan nan nan nan nan nan nan nan nan nan nan nan nan nan nan nan nan nan nan nan nan nan nan 241 nan nan nan nan nan nan nan nan nan nan nan nan nan 355 300 297 291 292 291
nan nan nan nan nan nan nan nan nan nan nan nan nan nan nan nan nan nan nan nan nan nan nan nan nan nan nan 275 nan nan nan nan nan nan nan nan nan 237 310 281 276 278 284 286 284
nan nan nan nan nan nan nan nan nan nan nan nan nan nan nan nan nan nan nan nan nan nan nan nan nan nan nan nan nan nan nan nan nan nan nan nan nan 255 263 261 272 271 269 269 270
nan nan nan nan nan nan nan nan nan nan nan nan nan nan nan nan nan nan nan nan nan nan nan nan nan nan nan nan nan nan nan nan nan nan nan nan nan 240 237 264 261 258 259 267 273
nan nan nan nan nan nan nan nan nan nan nan nan nan nan nan nan nan nan nan nan nan nan nan nan nan nan nan nan nan nan nan nan nan nan nan nan nan nan 236 253 265 267 266 269 269